Time,TemperatureF,DewpointF,PressureIn,WindDirection,WindDirectionDegrees,WindSpeedMPH,WindSpeedGustMPH,Humidity,HourlyPrecipIn,Conditions,Clouds,dailyrainin,SoftwareType,DateUTC
2013-03-12 00:02:00,30.9,30.4,29.94,WNW,291,0.0,0.0,98,0.00,,OVC023,0.00,VWS V14.01,2013-03-12 05:02:00,
2013-03-12 00:08:00,30.9,30.4,29.94,NW,310,0.0,0.0,98,0.00,,OVC023,0.00,VWS V14.01,2013-03-12 05:08:00,
2013-03-12 00:13:00,30.7,30.2,29.94,WSW,254,0.0,0.0,98,0.00,,OVC023,0.00,VWS V14.01,2013-03-12 05:13:00,
2013-03-12 00:18:00,30.7,30.2,29.94,West,270,0.0,0.0,98,0.00,,OVC023,0.00,VWS V14.01,2013-03-12 05:18:00,
2013-03-12 00:23:00,30.7,30.2,29.94,West,272,0.0,0.0,98,0.00,,OVC021,0.00,VWS V14.01,2013-03-12 05:23:00,
2013-03-12 00:28:00,30.7,30.2,29.94,West,280,0.0,0.0,98,0.00,,OVC021,0.00,VWS V14.01,2013-03-12 05:28:00,
2013-03-12 00:33:00,30.7,30.2,29.94,WNW,286,0.0,0.0,98,0.00,,OVC021,0.00,VWS V14.01,2013-03-12 05:33:00,
2013-03-12 00:38:00,30.7,30.2,29.94,WSW,242,0.0,0.0,98,0.00,,OVC021,0.00,VWS V14.01,2013-03-12 05:38:00,
2013-03-12 00:43:00,30.7,30.2,29.94,WSW,241,0.0,0.0,98,0.00,,OVC021,0.00,VWS V14.01,2013-03-12 05:43:00,
2013-03-12 00:48:00,30.6,30.1,29.94,West,280,0.0,0.0,98,0.00,,OVC021,0.00,VWS V14.01,2013-03-12 05:48:00,
2013-03-12 00:53:00,30.6,30.1,29.94,WNW,290,0.0,0.0,98,0.00,,OVC021,0.00,VWS V14.01,2013-03-12 05:53:00,
2013-03-12 00:58:00,30.6,30.1,29.94,WNW,298,0.0,0.0,98,0.00,,OVC021,0.00,VWS V14.01,2013-03-12 05:58:00,
2013-03-12 01:03:00,30.6,30.1,29.94,WSW,248,0.0,0.0,98,0.00,,OVC023,0.00,VWS V14.01,2013-03-12 06:03:00,
2013-03-12 01:09:00,30.6,30.1,29.94,WNW,286,0.0,0.0,98,0.00,,OVC023,0.00,VWS V14.01,2013-03-12 06:09:00,
2013-03-12 01:14:00,30.6,30.1,29.94,WSW,248,0.0,0.0,98,0.00,,OVC023,0.00,VWS V14.01,2013-03-12 06:14:00,
2013-03-12 01:19:00,30.6,30.1,29.94,SW,221,0.0,0.0,98,0.00,,OVC023,0.00,VWS V14.01,2013-03-12 06:19:00,
2013-03-12 01:24:00,30.4,29.9,29.94,SW,218,0.0,0.0,98,0.00,,OVC035,0.00,VWS V14.01,2013-03-12 06:24:00,
2013-03-12 01:29:00,30.4,27.1,29.94,WSW,245,0.0,0.0,88,0.00,,OVC035,0.00,VWS V14.01,2013-03-12 06:29:00,
2013-03-12 01:34:00,30.4,27.1,29.94,WNW,285,0.0,0.0,88,0.00,,OVC035,0.00,VWS V14.01,2013-03-12 06:34:00,
2013-03-12 01:39:00,30.4,27.1,29.94,West,277,0.0,0.0,88,0.00,,OVC035,0.00,VWS V14.01,2013-03-12 06:39:00,
2013-03-12 01:44:00,30.2,26.9,29.94,WSW,256,0.0,0.0,88,0.00,,OVC030,0.00,VWS V14.01,2013-03-12 06:44:00,
2013-03-12 01:49:00,30.2,26.9,29.94,WSW,255,0.0,0.0,88,0.00,,OVC030,0.00,VWS V14.01,2013-03-12 06:49:00,
2013-03-12 01:54:00,30.2,26.9,29.94,SW,233,0.0,0.0,88,0.00,,OVC030,0.00,VWS V14.01,2013-03-12 06:54:00,
2013-03-12 01:59:00,30.2,26.9,29.94,WNW,300,0.0,0.0,88,0.00,,OVC030,0.00,VWS V14.01,2013-03-12 06:59:00,
2013-03-12 02:05:00,30.2,26.9,29.94,West,280,0.0,0.0,88,0.00,,OVC032,0.00,VWS V14.01,2013-03-12 07:05:00,
2013-03-12 02:10:00,30.0,26.8,29.94,NNW,330,0.0,0.0,88,0.00,,OVC032,0.00,VWS V14.01,2013-03-12 07:10:00,
2013-03-12 02:15:00,29.8,26.6,29.94,WNW,286,0.0,0.0,88,0.00,,OVC032,0.00,VWS V14.01,2013-03-12 07:15:00,
2013-03-12 02:20:00,29.8,26.6,29.94,West,271,0.0,0.0,88,0.00,,OVC032,0.00,VWS V14.01,2013-03-12 07:20:00,
2013-03-12 02:25:00,29.8,26.6,29.94,NW,305,0.0,0.0,88,0.00,,OVC032,0.00,VWS V14.01,2013-03-12 07:25:00,
2013-03-12 02:30:00,29.8,26.6,29.94,NW,308,0.0,0.0,88,0.00,,OVC032,0.00,VWS V14.01,2013-03-12 07:30:00,
2013-03-12 02:35:00,29.8,26.6,29.94,NW,322,0.0,0.0,88,0.00,,OVC032,0.00,VWS V14.01,2013-03-12 07:35:00,
2013-03-12 02:40:00,29.8,26.6,29.94,West,261,0.0,0.0,88,0.00,,OVC032,0.00,VWS V14.01,2013-03-12 07:40:00,
2013-03-12 02:45:00,29.7,26.4,29.97,WSW,247,0.0,0.0,88,0.00,,OVC032,0.00,VWS V14.01,2013-03-12 07:45:00,
2013-03-12 02:50:00,29.5,26.2,29.97,North,353,0.0,0.0,88,0.00,,OVC032,0.00,VWS V14.01,2013-03-12 07:50:00,
2013-03-12 02:55:00,29.5,26.2,29.97,WNW,285,0.0,0.0,88,0.00,,OVC032,0.00,VWS V14.01,2013-03-12 07:55:00,
2013-03-12 03:01:00,29.3,26.1,29.97,WSW,246,0.0,0.0,88,0.00,,OVC032,0.00,VWS V14.01,2013-03-12 08:01:00,
2013-03-12 03:06:00,29.1,25.9,29.97,WSW,251,0.0,0.0,88,0.00,,OVC030,0.00,VWS V14.01,2013-03-12 08:06:00,
2013-03-12 03:11:00,28.9,25.7,29.97,SW,224,0.0,0.0,88,0.00,,OVC030,0.00,VWS V14.01,2013-03-12 08:11:00,
2013-03-12 03:16:00,28.9,25.7,29.94,West,266,0.0,0.0,88,0.00,,OVC030,0.00,VWS V14.01,2013-03-12 08:16:00,
2013-03-12 03:21:00,28.8,25.5,29.94,WSW,247,0.0,0.0,88,0.00,,OVC030,0.00,VWS V14.01,2013-03-12 08:21:00,
2013-03-12 03:26:00,28.8,25.5,29.94,WSW,249,0.0,0.0,88,0.00,,OVC028,0.00,VWS V14.01,2013-03-12 08:26:00,
2013-03-12 03:31:00,28.8,25.5,29.97,West,261,0.0,0.0,88,0.00,,OVC028,0.00,VWS V14.01,2013-03-12 08:31:00,
2013-03-12 03:37:00,28.8,25.5,29.97,West,280,0.0,0.0,88,0.00,,OVC028,0.00,VWS V14.01,2013-03-12 08:37:00,
2013-03-12 03:42:00,28.6,25.4,29.97,West,268,0.0,0.0,88,0.00,,OVC028,0.00,VWS V14.01,2013-03-12 08:42:00,
2013-03-12 03:46:00,28.4,26.1,29.97,West,268,0.0,0.0,91,0.00,,OVC026,0.00,VWS V14.01,2013-03-12 08:46:00,
2013-03-12 03:52:00,28.2,25.9,29.97,WNW,282,0.0,0.0,91,0.00,,OVC026,0.00,VWS V14.01,2013-03-12 08:52:00,
2013-03-12 03:57:00,28.0,25.8,29.97,WSW,247,0.0,0.0,91,0.00,,OVC026,0.00,VWS V14.01,2013-03-12 08:57:00,
2013-03-12 04:02:00,27.9,25.6,29.97,SW,233,0.0,0.0,91,0.00,,BKN024,0.00,VWS V14.01,2013-03-12 09:02:00,
2013-03-12 04:07:00,27.9,25.6,29.97,SW,236,0.0,0.0,91,0.00,,BKN024,0.00,VWS V14.01,2013-03-12 09:07:00,
2013-03-12 04:12:00,27.7,25.4,29.97,West,262,0.0,0.0,91,0.00,,BKN024,0.00,VWS V14.01,2013-03-12 09:12:00,
2013-03-12 04:17:00,27.5,25.2,29.97,West,272,0.0,0.0,91,0.00,,BKN024,0.00,VWS V14.01,2013-03-12 09:17:00,
2013-03-12 04:22:00,27.3,25.0,29.97,SW,227,0.0,0.0,91,0.00,,SCT024,0.00,VWS V14.01,2013-03-12 09:22:00,
2013-03-12 04:27:00,27.1,24.9,29.97,NW,312,0.0,0.0,91,0.00,,SCT024,0.00,VWS V14.01,2013-03-12 09:27:00,
2013-03-12 04:32:00,27.1,24.9,29.94,West,278,0.0,0.0,91,0.00,,SCT024,0.00,VWS V14.01,2013-03-12 09:32:00,
2013-03-12 04:37:00,27.0,24.7,29.94,WSW,258,0.0,0.0,91,0.00,,SCT024,0.00,VWS V14.01,2013-03-12 09:37:00,
2013-03-12 04:42:00,27.0,24.7,29.94,West,272,0.0,0.0,91,0.00,,CLR,0.00,VWS V14.01,2013-03-12 09:42:00,
2013-03-12 04:48:00,26.8,24.5,29.94,WNW,286,0.0,0.0,91,0.00,,CLR,0.00,VWS V14.01,2013-03-12 09:48:00,
2013-03-12 04:53:00,26.8,24.5,29.94,WSW,245,0.0,0.0,91,0.00,,CLR,0.00,VWS V14.01,2013-03-12 09:53:00,
2013-03-12 04:58:00,26.6,24.3,29.94,SW,227,0.0,0.0,91,0.00,,CLR,0.00,VWS V14.01,2013-03-12 09:58:00,
2013-03-12 05:03:00,26.6,24.3,29.97,WSW,249,0.0,0.0,91,0.00,,CLR,0.00,VWS V14.01,2013-03-12 10:03:00,
2013-03-12 05:08:00,26.6,24.3,29.97,WSW,251,0.0,0.0,91,0.00,,CLR,0.00,VWS V14.01,2013-03-12 10:08:00,
2013-03-12 05:13:00,26.6,24.3,29.97,WSW,257,0.0,0.0,91,0.00,,CLR,0.00,VWS V14.01,2013-03-12 10:13:00,
2013-03-12 05:18:00,26.4,24.1,29.97,WSW,256,0.0,0.0,91,0.00,,CLR,0.00,VWS V14.01,2013-03-12 10:18:00,
2013-03-12 05:23:00,26.4,24.1,29.97,SW,233,0.0,0.0,91,0.00,,CLR,0.00,VWS V14.01,2013-03-12 10:23:00,
2013-03-12 05:28:00,26.4,24.1,29.97,WSW,237,0.0,0.0,91,0.00,,CLR,0.00,VWS V14.01,2013-03-12 10:28:00,
2013-03-12 05:33:00,26.4,24.1,29.97,West,267,0.0,0.0,91,0.00,,CLR,0.00,VWS V14.01,2013-03-12 10:33:00,
2013-03-12 05:38:00,26.2,24.0,29.97,North,353,0.0,0.0,91,0.00,,CLR,0.00,VWS V14.01,2013-03-12 10:38:00,
2013-03-12 05:44:00,26.2,24.0,29.97,WSW,254,0.0,0.0,91,0.00,,CLR,0.00,VWS V14.01,2013-03-12 10:44:00,
2013-03-12 05:49:00,26.2,24.0,30.00,WSW,240,0.0,0.0,91,0.00,,CLR,0.00,VWS V14.01,2013-03-12 10:49:00,
2013-03-12 05:54:00,26.2,24.0,30.00,WSW,252,0.0,0.0,91,0.00,,CLR,0.00,VWS V14.01,2013-03-12 10:54:00,
2013-03-12 05:59:00,26.1,23.8,30.00,SW,222,0.0,0.0,91,0.00,,CLR,0.00,VWS V14.01,2013-03-12 10:59:00,
2013-03-12 06:04:00,26.1,23.8,30.00,West,281,0.0,0.0,91,0.00,,CLR,0.00,VWS V14.01,2013-03-12 11:04:00,
2013-03-12 06:09:00,26.1,23.8,30.00,WSW,245,0.0,0.0,91,0.00,,CLR,0.00,VWS V14.01,2013-03-12 11:09:00,
2013-03-12 06:14:00,26.1,26.1,30.00,WSW,252,0.0,0.0,100,0.00,,CLR,0.00,VWS V14.01,2013-03-12 11:14:00,
2013-03-12 06:19:00,25.9,25.9,30.00,WSW,244,0.0,0.0,100,0.00,,CLR,0.00,VWS V14.01,2013-03-12 11:19:00,
2013-03-12 06:24:00,25.7,25.7,30.00,WSW,250,0.0,0.0,100,0.00,,CLR,0.00,VWS V14.01,2013-03-12 11:24:00,
2013-03-12 06:29:00,25.7,25.7,30.00,WSW,239,0.0,0.0,100,0.00,,CLR,0.00,VWS V14.01,2013-03-12 11:29:00,
2013-03-12 06:34:00,25.5,25.5,30.00,WSW,247,0.0,0.0,100,0.00,,CLR,0.00,VWS V14.01,2013-03-12 11:34:00,
2013-03-12 06:39:00,25.5,25.5,30.00,WSW,251,0.0,0.0,100,0.00,,CLR,0.00,VWS V14.01,2013-03-12 11:39:00,
2013-03-12 06:45:00,25.5,25.5,30.00,West,262,0.0,0.0,100,0.00,,CLR,0.00,VWS V14.01,2013-03-12 11:45:00,
2013-03-12 06:50:00,25.5,25.5,29.97,WSW,242,0.0,0.0,100,0.00,,CLR,0.00,VWS V14.01,2013-03-12 11:50:00,
2013-03-12 06:55:00,25.3,25.3,29.97,WSW,244,0.0,0.0,100,0.00,,CLR,0.00,VWS V14.01,2013-03-12 11:55:00,
2013-03-12 07:00:00,25.3,25.3,30.00,WSW,249,0.0,0.0,100,0.00,,CLR,0.00,VWS V14.01,2013-03-12 12:00:00,
2013-03-12 07:05:00,25.3,25.3,30.00,SW,234,0.0,0.0,100,0.00,,CLR,0.00,VWS V14.01,2013-03-12 12:05:00,
2013-03-12 07:10:00,25.2,25.2,30.00,WSW,237,0.0,0.0,100,0.00,,CLR,0.00,VWS V14.01,2013-03-12 12:10:00,
2013-03-12 07:15:00,25.2,25.2,30.00,WSW,240,0.0,0.0,100,0.00,,CLR,0.00,VWS V14.01,2013-03-12 12:15:00,
2013-03-12 07:20:00,25.2,25.2,30.00,WSW,238,0.0,0.0,100,0.00,,CLR,0.00,VWS V14.01,2013-03-12 12:20:00,
2013-03-12 07:25:00,25.2,25.2,30.00,SW,234,0.0,0.0,100,0.00,,CLR,0.00,VWS V14.01,2013-03-12 12:25:00,
2013-03-12 07:30:00,25.2,25.2,30.00,SW,222,0.0,0.0,100,0.00,,CLR,0.00,VWS V14.01,2013-03-12 12:30:00,
2013-03-12 07:35:00,25.2,25.2,30.00,SW,230,0.0,0.0,100,0.00,,CLR,0.00,VWS V14.01,2013-03-12 12:35:00,
2013-03-12 07:40:00,25.2,25.2,30.00,WSW,247,0.0,0.0,100,0.00,,CLR,0.00,VWS V14.01,2013-03-12 12:40:00,
2013-03-12 07:45:00,25.3,25.3,30.00,SW,226,0.0,0.0,100,0.00,,CLR,0.00,VWS V14.01,2013-03-12 12:45:00,
2013-03-12 07:51:00,25.3,25.3,30.00,SW,226,0.0,0.0,100,0.00,,CLR,0.00,VWS V14.01,2013-03-12 12:51:00,
2013-03-12 07:56:00,25.5,25.5,30.00,WSW,238,0.0,0.0,100,0.00,,CLR,0.00,VWS V14.01,2013-03-12 12:56:00,
2013-03-12 08:01:00,25.7,25.7,30.00,WSW,239,0.0,0.0,100,0.00,,CLR,0.00,VWS V14.01,2013-03-12 13:01:00,
2013-03-12 08:06:00,25.9,25.9,30.00,WSW,244,0.0,0.0,100,0.00,,CLR,0.00,VWS V14.01,2013-03-12 13:06:00,
2013-03-12 08:11:00,26.1,26.1,30.00,SW,216,0.0,0.0,100,0.00,,CLR,0.00,VWS V14.01,2013-03-12 13:11:00,
2013-03-12 08:17:00,26.2,26.2,30.00,South,184,0.0,0.0,100,0.00,,CLR,0.00,VWS V14.01,2013-03-12 13:17:00,
2013-03-12 08:22:00,26.6,26.6,30.00,SW,218,0.0,2.2,100,0.00,,CLR,0.00,VWS V14.01,2013-03-12 13:22:00,
2013-03-12 08:27:00,27.0,27.0,30.00,WSW,245,0.0,0.0,100,0.00,,CLR,0.00,VWS V14.01,2013-03-12 13:27:00,
2013-03-12 08:32:00,27.1,27.1,30.03,WSW,248,0.0,0.0,100,0.00,,CLR,0.00,VWS V14.01,2013-03-12 13:32:00,
2013-03-12 08:37:00,27.5,27.5,30.03,SW,232,0.0,0.0,100,0.00,,CLR,0.00,VWS V14.01,2013-03-12 13:37:00,
2013-03-12 08:42:00,28.0,28.0,30.03,SW,230,0.0,0.0,100,0.00,,CLR,0.00,VWS V14.01,2013-03-12 13:42:00,
2013-03-12 08:47:00,28.4,28.4,30.03,WSW,242,0.0,0.0,100,0.00,,CLR,0.00,VWS V14.01,2013-03-12 13:47:00,
2013-03-12 08:53:00,28.8,28.8,30.03,WSW,241,0.0,0.0,100,0.00,,CLR,0.00,VWS V14.01,2013-03-12 13:53:00,
2013-03-12 08:58:00,29.1,29.1,30.03,SW,232,3.1,3.6,100,0.00,,CLR,0.00,VWS V14.01,2013-03-12 13:58:00,
2013-03-12 09:03:00,29.5,29.5,30.00,West,267,0.0,0.0,100,0.00,,CLR,0.00,VWS V14.01,2013-03-12 14:03:00,
2013-03-12 09:08:00,30.0,30.0,30.00,SW,234,2.7,3.1,100,0.00,,CLR,0.00,VWS V14.01,2013-03-12 14:08:00,
2013-03-12 09:13:00,30.2,29.7,30.00,WSW,237,0.0,0.0,98,0.00,,CLR,0.00,VWS V14.01,2013-03-12 14:13:00,
2013-03-12 09:18:00,30.7,30.2,30.03,WSW,237,0.0,4.0,98,0.00,,CLR,0.00,VWS V14.01,2013-03-12 14:18:00,
2013-03-12 09:23:00,30.4,29.9,30.03,WSW,247,3.6,3.6,98,0.00,,CLR,0.00,VWS V14.01,2013-03-12 14:23:00,
2013-03-12 09:28:00,30.0,26.8,30.03,West,274,3.1,7.6,88,0.00,,CLR,0.00,VWS V14.01,2013-03-12 14:28:00,
2013-03-12 09:33:00,30.0,26.8,30.03,West,275,5.8,7.6,88,0.00,,CLR,0.00,VWS V14.01,2013-03-12 14:33:00,
2013-03-12 09:38:00,30.6,27.3,30.03,West,266,3.6,8.3,88,0.00,,CLR,0.00,VWS V14.01,2013-03-12 14:38:00,
2013-03-12 09:43:00,30.7,27.5,30.03,West,263,4.0,9.6,88,0.00,,CLR,0.00,VWS V14.01,2013-03-12 14:43:00,
2013-03-12 09:48:00,30.7,27.5,30.03,West,270,3.6,8.7,88,0.00,,CLR,0.00,VWS V14.01,2013-03-12 14:48:00,
2013-03-12 09:53:00,31.3,28.0,30.03,WSW,252,8.3,8.3,88,0.00,,CLR,0.00,VWS V14.01,2013-03-12 14:53:00,
2013-03-12 09:59:00,31.6,28.4,30.03,WSW,248,6.3,8.1,88,0.00,,CLR,0.00,VWS V14.01,2013-03-12 14:59:00,
2013-03-12 10:04:00,32.4,29.1,30.03,WSW,254,5.4,8.1,88,0.00,,CLR,0.00,VWS V14.01,2013-03-12 15:04:00,
2013-03-12 10:09:00,32.7,29.4,30.03,WSW,248,3.1,8.7,88,0.00,,CLR,0.00,VWS V14.01,2013-03-12 15:09:00,
2013-03-12 10:14:00,33.6,30.3,30.03,WSW,242,3.6,7.6,88,0.00,,CLR,0.00,VWS V14.01,2013-03-12 15:14:00,
2013-03-12 10:19:00,33.8,30.5,30.03,WSW,251,5.8,6.7,88,0.00,,CLR,0.00,VWS V14.01,2013-03-12 15:19:00,
2013-03-12 10:24:00,33.8,30.5,30.03,West,267,6.3,7.6,88,0.00,,CLR,0.00,VWS V14.01,2013-03-12 15:24:00,
2013-03-12 10:29:00,34.2,30.8,30.03,WNW,285,4.0,7.2,88,0.00,,CLR,0.00,VWS V14.01,2013-03-12 15:29:00,
2013-03-12 10:34:00,34.9,31.5,30.03,WSW,241,4.0,5.4,88,0.00,,CLR,0.00,VWS V14.01,2013-03-12 15:34:00,
2013-03-12 10:39:00,35.1,31.7,30.03,WNW,290,8.1,8.1,88,0.00,,CLR,0.00,VWS V14.01,2013-03-12 15:39:00,
2013-03-12 10:44:00,35.1,31.7,30.03,West,268,3.1,8.1,88,0.00,,CLR,0.00,VWS V14.01,2013-03-12 15:44:00,
2013-03-12 10:49:00,35.6,31.2,30.03,West,268,5.4,10.5,84,0.00,,CLR,0.00,VWS V14.01,2013-03-12 15:49:00,
2013-03-12 10:54:00,35.8,31.4,30.03,SW,236,6.3,8.7,84,0.00,,CLR,0.00,VWS V14.01,2013-03-12 15:54:00,
2013-03-12 10:59:00,36.3,32.0,30.03,SW,227,3.1,7.2,84,0.00,,CLR,0.00,VWS V14.01,2013-03-12 15:59:00,
2013-03-12 11:04:00,36.9,32.5,30.03,WNW,283,2.7,8.7,84,0.00,,CLR,0.00,VWS V14.01,2013-03-12 16:04:00,
2013-03-12 11:09:00,36.7,32.3,30.03,WSW,251,5.4,7.6,84,0.00,,CLR,0.00,VWS V14.01,2013-03-12 16:09:00,
2013-03-12 11:14:00,37.2,32.8,30.03,WNW,294,3.1,8.1,84,0.00,,CLR,0.00,VWS V14.01,2013-03-12 16:14:00,
2013-03-12 11:20:00,37.8,33.4,30.03,WNW,289,5.4,6.3,84,0.00,,CLR,0.00,VWS V14.01,2013-03-12 16:20:00,
2013-03-12 11:25:00,37.9,33.5,30.03,SW,219,6.3,6.3,84,0.00,,CLR,0.00,VWS V14.01,2013-03-12 16:25:00,
2013-03-12 11:30:00,38.3,33.9,30.03,NNW,332,0.0,8.1,84,0.00,,CLR,0.00,VWS V14.01,2013-03-12 16:30:00,
2013-03-12 11:35:00,38.5,34.1,30.03,WSW,255,5.8,6.3,84,0.00,,CLR,0.00,VWS V14.01,2013-03-12 16:35:00,
2013-03-12 11:40:00,38.5,34.1,30.03,WNW,290,5.4,7.6,84,0.00,,SCT027,0.00,VWS V14.01,2013-03-12 16:40:00,
2013-03-12 11:45:00,38.7,34.2,30.03,West,268,8.1,8.1,84,0.00,,SCT027,0.00,VWS V14.01,2013-03-12 16:45:00,
2013-03-12 11:50:00,38.7,34.2,30.03,West,265,2.7,7.6,84,0.00,,SCT027,0.00,VWS V14.01,2013-03-12 16:50:00,
2013-03-12 11:55:00,39.2,33.7,30.03,NW,325,5.4,8.7,80,0.00,,SCT027,0.00,VWS V14.01,2013-03-12 16:55:00,
2013-03-12 12:00:00,39.6,34.1,30.03,SW,235,2.7,7.6,80,0.00,,SCT027,0.00,VWS V14.01,2013-03-12 17:00:00,
2013-03-12 12:05:00,40.3,34.8,30.03,West,260,5.4,10.5,80,0.00,,SCT027,0.00,VWS V14.01,2013-03-12 17:05:00,
2013-03-12 12:10:00,40.3,34.8,30.03,WSW,238,5.8,11.0,80,0.00,,SCT027,0.00,VWS V14.01,2013-03-12 17:10:00,
2013-03-12 12:15:00,39.9,34.4,30.03,West,262,3.1,8.7,80,0.00,,SCT027,0.00,VWS V14.01,2013-03-12 17:15:00,
2013-03-12 12:20:00,39.9,34.4,30.00,NNW,333,5.8,8.3,80,0.00,,SCT027,0.00,VWS V14.01,2013-03-12 17:20:00,
2013-03-12 12:25:00,39.2,33.7,30.00,SW,223,10.1,11.9,80,0.00,,SCT027,0.00,VWS V14.01,2013-03-12 17:25:00,
2013-03-12 12:30:00,38.7,34.2,30.03,WSW,253,4.0,4.9,84,0.00,,SCT027,0.00,VWS V14.01,2013-03-12 17:30:00,
2013-03-12 12:35:00,38.7,34.2,30.03,WNW,287,3.6,3.6,84,0.00,,SCT027,0.00,VWS V14.01,2013-03-12 17:35:00,
2013-03-12 12:40:00,38.5,34.1,30.03,WNW,291,4.0,7.6,84,0.00,,SCT027,0.00,VWS V14.01,2013-03-12 17:40:00,
2013-03-12 12:45:00,38.7,34.2,30.00,West,280,5.8,6.3,84,0.00,,SCT029,0.00,VWS V14.01,2013-03-12 17:45:00,
2013-03-12 12:50:00,38.5,34.1,30.00,NW,310,4.0,9.6,84,0.00,,SCT029,0.00,VWS V14.01,2013-03-12 17:50:00,
2013-03-12 12:55:00,39.0,34.6,30.00,WSW,250,2.7,4.0,84,0.00,,SCT029,0.00,VWS V14.01,2013-03-12 17:55:00,
2013-03-12 13:00:00,39.6,34.1,30.03,NNW,341,4.9,4.9,80,0.00,,SCT035,0.00,VWS V14.01,2013-03-12 18:00:00,
2013-03-12 13:05:00,40.3,34.8,30.03,SSW,202,3.1,5.4,80,0.00,,SCT035,0.00,VWS V14.01,2013-03-12 18:05:00,
2013-03-12 13:10:00,40.6,35.1,30.03,West,265,2.7,8.1,80,0.00,,SCT035,0.00,VWS V14.01,2013-03-12 18:10:00,
2013-03-12 13:15:00,40.5,34.9,30.03,SSW,205,5.8,5.8,80,0.00,,SCT035,0.00,VWS V14.01,2013-03-12 18:15:00,
2013-03-12 13:20:00,40.5,34.9,30.03,NW,321,5.8,6.3,80,0.00,,BKN039,0.00,VWS V14.01,2013-03-12 18:20:00,
2013-03-12 13:25:00,40.5,34.9,30.03,WSW,252,3.6,8.1,80,0.00,,BKN039,0.00,VWS V14.01,2013-03-12 18:25:00,
2013-03-12 13:31:00,40.1,34.6,30.03,West,263,6.7,8.1,80,0.00,,BKN039,0.00,VWS V14.01,2013-03-12 18:31:00,
2013-03-12 13:36:00,39.6,34.1,30.03,WSW,237,7.6,7.6,80,0.00,,BKN039,0.00,VWS V14.01,2013-03-12 18:36:00,
2013-03-12 13:41:00,39.4,33.9,30.03,SW,235,5.4,10.1,80,0.00,,BKN039,0.00,VWS V14.01,2013-03-12 18:41:00,
2013-03-12 13:46:00,39.4,33.9,30.00,SW,214,6.3,7.6,80,0.00,,BKN039,0.00,VWS V14.01,2013-03-12 18:46:00,
2013-03-12 13:51:00,39.2,33.7,30.00,WSW,246,7.6,8.1,80,0.00,,BKN039,0.00,VWS V14.01,2013-03-12 18:51:00,
2013-03-12 13:56:00,38.8,34.4,30.00,North,353,2.2,6.7,84,0.00,,BKN039,0.00,VWS V14.01,2013-03-12 18:56:00,
2013-03-12 14:02:00,38.5,34.1,30.03,WSW,241,4.9,5.4,84,0.00,,BKN080,0.00,VWS V14.01,2013-03-12 19:02:00,
2013-03-12 14:07:00,38.1,33.7,30.03,WSW,241,4.0,10.1,84,0.00,,BKN080,0.00,VWS V14.01,2013-03-12 19:07:00,
2013-03-12 14:12:00,37.2,32.8,30.03,SW,234,8.1,8.3,84,0.00,,BKN080,0.00,VWS V14.01,2013-03-12 19:12:00,
2013-03-12 14:17:00,36.5,32.1,30.03,SW,221,6.3,7.6,84,0.00,,BKN080,0.00,VWS V14.01,2013-03-12 19:17:00,
2013-03-12 14:22:00,36.5,32.1,30.03,WSW,243,8.7,8.7,84,0.00,,OVC045,0.00,VWS V14.01,2013-03-12 19:22:00,
2013-03-12 14:27:00,36.5,32.1,30.03,WSW,238,7.6,8.7,84,0.00,,OVC045,0.00,VWS V14.01,2013-03-12 19:27:00,
2013-03-12 14:32:00,36.5,32.1,30.03,West,273,4.9,8.3,84,0.00,,OVC045,0.00,VWS V14.01,2013-03-12 19:32:00,
2013-03-12 14:37:00,36.3,32.0,30.03,WSW,239,7.6,11.0,84,0.00,,OVC045,0.00,VWS V14.01,2013-03-12 19:37:00,
2013-03-12 14:42:00,36.1,31.8,30.03,WSW,251,8.7,12.8,84,0.00,,-RA,0.00,VWS V14.01,2013-03-12 19:42:00,
2013-03-12 14:47:00,35.8,31.4,30.03,WSW,256,10.5,18.3,84,0.00,,-RA,0.00,VWS V14.01,2013-03-12 19:47:00,
2013-03-12 14:53:00,35.8,31.4,30.03,SW,223,5.4,11.0,84,0.00,,-RA,0.00,VWS V14.01,2013-03-12 19:53:00,
2013-03-12 14:58:00,35.8,31.4,30.03,WNW,283,3.6,11.9,84,0.00,,-RA,0.00,VWS V14.01,2013-03-12 19:58:00,
2013-03-12 15:03:00,36.0,31.6,30.03,WSW,238,7.6,9.6,84,0.00,,-RA,0.00,VWS V14.01,2013-03-12 20:03:00,
2013-03-12 15:08:00,36.0,31.6,30.03,SW,233,4.0,11.0,84,0.00,,-RA,0.00,VWS V14.01,2013-03-12 20:08:00,
2013-03-12 15:13:00,36.1,31.8,30.03,SSW,211,3.1,12.8,84,0.00,,-RA,0.00,VWS V14.01,2013-03-12 20:13:00,
2013-03-12 15:18:00,36.3,34.9,30.03,WSW,251,11.0,11.4,94,0.00,,-RA,0.00,VWS V14.01,2013-03-12 20:18:00,
2013-03-12 15:23:00,35.8,34.4,30.03,WSW,252,7.6,12.3,94,0.00,,OVC080,0.00,VWS V14.01,2013-03-12 20:23:00,
2013-03-12 15:28:00,35.4,34.0,30.03,West,261,4.0,8.1,94,0.00,,OVC080,0.00,VWS V14.01,2013-03-12 20:28:00,
2013-03-12 15:33:00,35.1,33.6,30.03,WSW,241,2.7,8.3,94,0.00,,OVC080,0.00,VWS V14.01,2013-03-12 20:33:00,
2013-03-12 15:38:00,35.1,35.1,30.03,West,261,3.6,10.1,100,0.00,,OVC080,0.00,VWS V14.01,2013-03-12 20:38:00,
2013-03-12 15:43:00,35.4,35.4,30.03,WSW,258,8.1,13.2,100,0.00,, +RA,0.00,VWS V14.01,2013-03-12 20:43:00,
2013-03-12 15:48:00,35.6,34.2,30.03,West,281,6.3,9.6,94,0.00,, +RA,0.00,VWS V14.01,2013-03-12 20:48:00,
2013-03-12 15:53:00,35.8,34.4,30.03,West,264,15.0,15.0,94,0.00,, +RA,0.00,VWS V14.01,2013-03-12 20:53:00,
2013-03-12 15:58:00,35.8,34.4,30.03,West,265,10.1,15.0,94,0.00,, +RA,0.00,VWS V14.01,2013-03-12 20:58:00,
2013-03-12 16:03:00,35.8,31.4,30.03,WNW,301,6.3,20.1,84,0.00,,OVC080,0.00,VWS V14.01,2013-03-12 21:03:00,
2013-03-12 16:08:00,36.0,31.6,30.03,West,281,6.3,9.6,84,0.00,,OVC080,0.00,VWS V14.01,2013-03-12 21:08:00,
2013-03-12 16:14:00,36.0,31.6,30.03,SW,234,5.4,11.4,84,0.00,,OVC080,0.00,VWS V14.01,2013-03-12 21:14:00,
2013-03-12 16:19:00,35.8,31.4,30.03,WSW,241,0.0,11.0,84,0.00,,BKN080,0.00,VWS V14.01,2013-03-12 21:19:00,
2013-03-12 16:24:00,35.6,31.2,30.03,West,276,6.3,12.3,84,0.00,,BKN080,0.00,VWS V14.01,2013-03-12 21:24:00,
2013-03-12 16:29:00,35.4,32.1,30.03,West,265,4.0,10.1,88,0.00,,BKN080,0.00,VWS V14.01,2013-03-12 21:29:00,
2013-03-12 16:34:00,34.9,31.5,30.03,WSW,257,9.2,11.0,88,0.00,,BKN080,0.00,VWS V14.01,2013-03-12 21:34:00,
2013-03-12 16:39:00,35.1,31.7,30.03,WSW,252,7.2,11.0,88,0.00,,OVC070,0.00,VWS V14.01,2013-03-12 21:39:00,
2013-03-12 16:44:00,35.6,34.2,30.03,West,267,6.3,8.1,94,0.00,,OVC070,0.00,VWS V14.01,2013-03-12 21:44:00,
2013-03-12 16:49:00,35.6,31.2,30.03,WSW,258,8.1,16.8,84,0.00,,OVC070,0.00,VWS V14.01,2013-03-12 21:49:00,
2013-03-12 16:54:00,35.6,31.2,30.03,West,277,6.3,8.3,84,0.00,,OVC070,0.00,VWS V14.01,2013-03-12 21:54:00,
2013-03-12 16:59:00,35.6,31.2,30.03,WSW,241,8.1,15.0,84,0.00,,OVC070,0.00,VWS V14.01,2013-03-12 21:59:00,
2013-03-12 17:04:00,35.8,31.4,30.03,WNW,298,4.9,10.1,84,0.00,,OVC070,0.00,VWS V14.01,2013-03-12 22:04:00,
2013-03-12 17:09:00,36.0,31.6,30.03,WNW,284,4.5,9.6,84,0.00,,OVC070,0.00,VWS V14.01,2013-03-12 22:09:00,
2013-03-12 17:14:00,36.3,32.0,30.03,West,276,4.5,8.3,84,0.00,,OVC070,0.00,VWS V14.01,2013-03-12 22:14:00,
2013-03-12 17:19:00,36.3,32.0,30.03,WSW,257,6.3,12.8,84,0.00,,OVC070,0.00,VWS V14.01,2013-03-12 22:19:00,
2013-03-12 17:24:00,36.1,31.8,30.03,WNW,284,7.6,10.5,84,0.00,,OVC070,0.00,VWS V14.01,2013-03-12 22:24:00,
2013-03-12 17:29:00,36.1,31.8,30.03,SW,229,10.1,13.2,84,0.00,,OVC070,0.00,VWS V14.01,2013-03-12 22:29:00,
2013-03-12 17:34:00,35.8,31.4,30.03,West,275,11.0,12.8,84,0.00,,OVC070,0.00,VWS V14.01,2013-03-12 22:34:00,
2013-03-12 17:39:00,35.2,31.9,30.03,West,263,3.1,12.8,88,0.00,,,0.00,VWS V14.01,2013-03-12 22:39:00,
2013-03-12 17:44:00,34.9,31.5,30.03,WSW,249,5.8,15.4,88,0.00,,,0.00,VWS V14.01,2013-03-12 22:44:00,
2013-03-12 17:50:00,34.5,31.2,30.06,WNW,285,12.8,17.0,88,0.00,,,0.00,VWS V14.01,2013-03-12 22:50:00,
2013-03-12 17:55:00,34.5,31.2,30.06,WSW,241,7.6,13.2,88,0.00,,,0.00,VWS V14.01,2013-03-12 22:55:00,
2013-03-12 18:00:00,34.7,31.4,30.06,SW,223,5.8,8.3,88,0.00,,,0.00,VWS V14.01,2013-03-12 23:00:00,
2013-03-12 18:05:00,34.7,31.4,30.06,WNW,288,10.5,17.9,88,0.00,,SCT065,0.00,VWS V14.01,2013-03-12 23:05:00,
2013-03-12 18:10:00,34.5,31.2,30.06,WSW,257,7.2,12.3,88,0.00,,SCT065,0.00,VWS V14.01,2013-03-12 23:10:00,
2013-03-12 18:15:00,34.3,31.0,30.06,West,280,7.6,12.3,88,0.00,,SCT065,0.00,VWS V14.01,2013-03-12 23:15:00,
2013-03-12 18:20:00,34.2,30.8,30.06,West,261,4.0,13.2,88,0.00,,BKN055,0.00,VWS V14.01,2013-03-12 23:20:00,
2013-03-12 18:25:00,34.0,30.7,30.06,SW,231,5.4,10.5,88,0.00,,BKN055,0.00,VWS V14.01,2013-03-12 23:25:00,
2013-03-12 18:30:00,33.8,30.5,30.06,WNW,289,11.0,11.0,88,0.00,,BKN055,0.00,VWS V14.01,2013-03-12 23:30:00,
2013-03-12 18:35:00,33.8,30.5,30.06,West,262,5.4,5.4,88,0.00,,BKN055,0.00,VWS V14.01,2013-03-12 23:35:00,
2013-03-12 18:40:00,33.8,30.5,30.06,SW,236,9.6,9.6,88,0.00,,OVC070,0.00,VWS V14.01,2013-03-12 23:40:00,
2013-03-12 18:45:00,33.8,30.5,30.06,NW,320,5.8,7.6,88,0.00,,OVC070,0.00,VWS V14.01,2013-03-12 23:45:00,
2013-03-12 18:50:00,33.8,30.5,30.06,WSW,256,7.6,7.6,88,0.00,,OVC070,0.00,VWS V14.01,2013-03-12 23:50:00,
2013-03-12 18:55:00,33.8,30.5,30.06,SW,235,5.8,8.3,88,0.00,,OVC070,0.00,VWS V14.01,2013-03-12 23:55:00,
2013-03-12 19:00:00,33.6,30.3,30.06,SW,222,8.3,8.3,88,0.00,,OVC070,0.00,VWS V14.01,2013-03-13 00:00:00,
2013-03-12 19:05:00,33.4,30.1,30.06,SW,233,8.7,12.8,88,0.00,,OVC070,0.00,VWS V14.01,2013-03-13 00:05:00,
2013-03-12 19:10:00,33.3,30.0,30.06,West,279,5.4,7.6,88,0.00,,OVC070,0.00,VWS V14.01,2013-03-13 00:10:00,
2013-03-12 19:15:00,33.1,32.6,30.06,NNW,332,3.6,5.8,98,0.00,,OVC070,0.00,VWS V14.01,2013-03-13 00:15:00,
2013-03-12 19:20:00,33.1,32.6,30.06,West,273,3.1,6.3,98,0.00,,OVC070,0.00,VWS V14.01,2013-03-13 00:20:00,
2013-03-12 19:25:00,32.9,32.4,30.06,NNW,332,8.1,12.3,98,0.00,,,0.00,VWS V14.01,2013-03-13 00:25:00,
2013-03-12 19:30:00,32.7,32.2,30.09,West,278,7.6,8.1,98,0.00,,,0.00,VWS V14.01,2013-03-13 00:30:00,
2013-03-12 19:35:00,32.5,32.0,30.09,NW,326,3.1,5.4,98,0.00,,,0.00,VWS V14.01,2013-03-13 00:35:00,
2013-03-12 19:40:00,32.4,31.9,30.09,WNW,289,11.0,11.0,98,0.00,,,0.00,VWS V14.01,2013-03-13 00:40:00,
2013-03-12 19:46:00,32.2,31.7,30.09,WSW,257,6.7,6.7,98,0.00,,,0.00,VWS V14.01,2013-03-13 00:46:00,
2013-03-12 19:51:00,31.8,31.3,30.09,NW,315,0.0,7.6,98,0.00,,,0.00,VWS V14.01,2013-03-13 00:51:00,
2013-03-12 19:56:00,31.6,31.1,30.09,North,353,5.4,5.8,98,0.00,,,0.00,VWS V14.01,2013-03-13 00:56:00,
2013-03-12 20:01:00,31.5,31.0,30.09,NW,305,4.0,5.8,98,0.00,,,0.00,VWS V14.01,2013-03-13 01:01:00,
2013-03-12 20:06:00,31.5,31.0,30.09,NNW,330,9.6,9.6,98,0.00,,OVC045,0.00,VWS V14.01,2013-03-13 01:06:00,
2013-03-12 20:11:00,31.5,31.0,30.09,NNW,332,0.0,4.0,98,0.00,,OVC045,0.00,VWS V14.01,2013-03-13 01:11:00,
2013-03-12 20:16:00,31.1,30.6,30.09,NNW,338,8.7,8.7,98,0.00,,OVC045,0.00,VWS V14.01,2013-03-13 01:16:00,
2013-03-12 20:22:00,30.7,27.5,30.09,WNW,297,4.0,8.7,88,0.00,,OVC045,0.00,VWS V14.01,2013-03-13 01:22:00,
2013-03-12 20:27:00,30.6,27.3,30.09,NW,305,5.8,8.7,88,0.00,,OVC070,0.00,VWS V14.01,2013-03-13 01:27:00,
2013-03-12 20:32:00,30.7,27.5,30.11,WNW,286,3.6,8.7,88,0.00,,OVC070,0.00,VWS V14.01,2013-03-13 01:32:00,
2013-03-12 20:37:00,30.6,27.3,30.11,North,0,7.6,10.1,88,0.00,,OVC070,0.00,VWS V14.01,2013-03-13 01:37:00,
2013-03-12 20:42:00,30.4,27.1,30.11,North,357,15.0,16.3,88,0.00,,OVC070,0.00,VWS V14.01,2013-03-13 01:42:00,
2013-03-12 20:47:00,30.0,26.8,30.11,NW,308,4.0,10.5,88,0.00,,OVC070,0.00,VWS V14.01,2013-03-13 01:47:00,
2013-03-12 20:52:00,29.8,26.6,30.11,North,357,15.4,15.4,88,0.00,,OVC070,0.00,VWS V14.01,2013-03-13 01:52:00,
2013-03-12 20:57:00,29.5,26.2,30.11,WNW,301,3.1,12.3,88,0.00,,OVC070,0.00,VWS V14.01,2013-03-13 01:57:00,
2013-03-12 21:02:00,29.5,26.2,30.11,NW,323,5.8,8.7,88,0.00,,OVC070,0.00,VWS V14.01,2013-03-13 02:02:00,
2013-03-12 21:07:00,29.3,26.1,30.11,North,357,4.0,8.3,88,0.00,,OVC070,0.00,VWS V14.01,2013-03-13 02:07:00,
2013-03-12 21:12:00,29.1,25.9,30.11,North,0,4.0,10.5,88,0.00,,OVC070,0.00,VWS V14.01,2013-03-13 02:12:00,
2013-03-12 21:17:00,28.9,25.7,30.11,North,7,4.9,10.5,88,0.00,,OVC070,0.00,VWS V14.01,2013-03-13 02:17:00,
2013-03-12 21:22:00,28.8,25.5,30.11,WNW,286,4.0,8.1,88,0.00,,,0.00,VWS V14.01,2013-03-13 02:22:00,
2013-03-12 21:27:00,28.6,25.4,30.11,West,277,5.4,8.7,88,0.00,,,0.00,VWS V14.01,2013-03-13 02:27:00,
2013-03-12 21:32:00,28.6,25.4,30.11,NNW,342,3.1,8.7,88,0.00,,,0.00,VWS V14.01,2013-03-13 02:32:00,
2013-03-12 21:37:00,28.6,25.4,30.11,WNW,301,5.8,9.6,88,0.00,,,0.00,VWS V14.01,2013-03-13 02:37:00,
2013-03-12 21:43:00,28.6,25.4,30.11,NW,312,4.0,10.1,88,0.00,,OVC055,0.00,VWS V14.01,2013-03-13 02:43:00,
2013-03-12 21:48:00,28.4,26.1,30.11,NNE,30,8.1,15.4,91,0.00,,OVC055,0.00,VWS V14.01,2013-03-13 02:48:00,
2013-03-12 21:53:00,28.0,25.8,30.11,North,353,6.3,10.5,91,0.00,,OVC055,0.00,VWS V14.01,2013-03-13 02:53:00,
2013-03-12 21:58:00,28.0,25.8,30.11,NW,304,4.0,9.2,91,0.00,,OVC055,0.00,VWS V14.01,2013-03-13 02:58:00,
2013-03-12 22:03:00,27.9,25.6,30.11,NW,321,3.6,9.6,91,0.00,,OVC065,0.00,VWS V14.01,2013-03-13 03:03:00,
2013-03-12 22:08:00,27.9,25.6,30.11,WSW,244,6.3,8.1,91,0.00,,OVC065,0.00,VWS V14.01,2013-03-13 03:08:00,
2013-03-12 22:13:00,27.7,25.4,30.11,West,274,7.6,8.1,91,0.00,,OVC065,0.00,VWS V14.01,2013-03-13 03:13:00,
2013-03-12 22:18:00,27.5,25.2,30.11,West,270,6.3,8.1,91,0.00,,OVC065,0.00,VWS V14.01,2013-03-13 03:18:00,
2013-03-12 22:23:00,27.7,25.4,30.11,WNW,288,7.6,10.1,91,0.00,,OVC070,0.00,VWS V14.01,2013-03-13 03:23:00,
2013-03-12 22:28:00,27.5,25.2,30.11,WNW,299,5.8,6.3,91,0.00,,OVC070,0.00,VWS V14.01,2013-03-13 03:28:00,
2013-03-12 22:33:00,27.5,25.2,30.14,WSW,257,3.1,11.0,91,0.00,,OVC070,0.00,VWS V14.01,2013-03-13 03:33:00,
2013-03-12 22:38:00,27.3,25.0,30.14,NW,322,0.0,12.8,91,0.00,,BKN110,0.00,VWS V14.01,2013-03-13 03:38:00,
2013-03-12 22:43:00,27.1,24.9,30.14,SW,233,4.9,10.1,91,0.00,,BKN110,0.00,VWS V14.01,2013-03-13 03:43:00,
2013-03-12 22:48:00,27.0,24.7,30.14,NNW,331,8.1,8.1,91,0.00,,BKN110,0.00,VWS V14.01,2013-03-13 03:48:00,
2013-03-12 22:53:00,27.0,24.7,30.14,West,259,6.3,15.0,91,0.00,,BKN110,0.00,VWS V14.01,2013-03-13 03:53:00,
2013-03-12 22:59:00,26.8,24.5,30.14,WNW,290,5.4,9.2,91,0.00,,BKN110,0.00,VWS V14.01,2013-03-13 03:59:00,
2013-03-12 23:00:00,26.8,24.5,30.14,WSW,250,3.6,9.2,91,0.00,,BKN110,0.00,VWS V14.01,2013-03-13 04:00:00,
2013-03-12 23:05:00,26.6,24.3,30.14,WNW,282,3.6,8.7,91,0.00,,BKN085,0.00,VWS V14.01,2013-03-13 04:05:00,
2013-03-12 23:10:00,26.6,24.3,30.14,West,275,4.9,6.3,91,0.00,,BKN085,0.00,VWS V14.01,2013-03-13 04:10:00,
2013-03-12 23:15:00,26.6,24.3,30.14,WNW,287,3.1,5.8,91,0.00,,BKN085,0.00,VWS V14.01,2013-03-13 04:15:00,
2013-03-12 23:20:00,26.6,24.3,30.14,North,0,3.1,4.9,91,0.00,,BKN090,0.00,VWS V14.01,2013-03-13 04:20:00,
2013-03-12 23:26:00,26.4,24.1,30.14,West,269,7.2,7.2,91,0.00,,BKN090,0.00,VWS V14.01,2013-03-13 04:26:00,
2013-03-12 23:31:00,26.4,24.1,30.14,WSW,256,4.0,5.8,91,0.00,,BKN090,0.00,VWS V14.01,2013-03-13 04:31:00,
2013-03-12 23:36:00,26.4,24.1,30.14,West,277,5.4,6.3,91,0.00,,BKN090,0.00,VWS V14.01,2013-03-13 04:36:00,
2013-03-12 23:41:00,26.4,24.1,30.14,North,0,3.1,4.0,91,0.00,,BKN090,0.00,VWS V14.01,2013-03-13 04:41:00,
2013-03-12 23:46:00,26.2,24.0,30.14,South,174,4.0,4.0,91,0.00,,BKN090,0.00,VWS V14.01,2013-03-13 04:46:00,
2013-03-12 23:51:00,26.1,23.8,30.14,West,259,4.0,4.9,91,0.00,,BKN090,0.00,VWS V14.01,2013-03-13 04:51:00,
2013-03-12 23:56:00,26.1,23.8,30.14,NNW,343,3.6,4.9,91,0.00,,BKN090,0.00,VWS V14.01,2013-03-13 04:56:00,